EDT,Max TemperatureF,Mean TemperatureF,Min TemperatureF,Max Dew PointF,MeanDew PointF,Min DewpointF,Max Humidity, Mean Humidity, Min Humidity, Max Sea Level PressureIn, Mean Sea Level PressureIn, Min Sea Level PressureIn, Max VisibilityMiles, Mean VisibilityMiles, Min VisibilityMiles, Max Wind SpeedMPH, Mean Wind SpeedMPH, Max Gust SpeedMPH,PrecipitationIn, CloudCover, Events, WindDirDegrees
2014-5-1,51,46,40,39,36,35,83,70,56,29.89,29.85,29.82,10,10,7,26,14,32,0.00,6,,235
2014-5-2,52,48,45,41,40,38,83,73,60,29.89,29.86,29.84,10,9,7,18,14,24,0.00,8,,246
2014-5-3,66,56,45,42,36,29,80,53,25,29.89,29.81,29.75,10,9,5,28,15,38,0.00,4,,252
2014-5-4,61,54,46,41,31,19,69,43,26,30.08,29.99,29.89,10,9,5,21,10,25,0.00,4,,314
2014-5-5,61,52,43,39,34,28,64,50,41,30.07,29.95,29.89,10,10,7,17,9,25,0.00,2,Rain,86
2014-5-6,70,56,43,39,35,32,69,43,28,30.01,29.96,29.88,10,9,7,18,13,29,0.00,0,,89
2014-5-7,84,67,50,55,47,35,67,50,30,29.94,29.91,29.86,10,9,5,20,11,25,0.00,1,,163
2014-5-8,87,74,62,58,55,51,69,51,31,30.00,29.95,29.91,10,9,7,24,13,31,0.00,0,,204
2014-5-9,78,68,57,60,55,48,79,61,42,29.95,29.86,29.78,10,9,5,31,14,39,0.02,4,Rain,216
2014-5-10,73,62,51,52,43,32,92,54,22,30.02,29.96,29.89,10,9,5,16,5,20,0.00,1,,302
2014-5-11,84,68,52,62,52,40,89,61,33,30.07,30.01,29.93,10,9,3,20,7,25,0.19,3,Rain,185
2014-5-12,81,70,60,68,64,60,98,80,60,30.04,30.00,29.96,10,8,2,39,14,44,1.00,3,Rain,196
2014-5-13,80,68,56,67,62,54,91,83,60,30.14,30.01,29.96,10,7,2,22,11,28,0.31,6,Rain,236
2014-5-14,55,52,48,53,50,47,97,89,80,30.14,30.05,29.85,10,6,2,22,9,26,1.05,8,Rain,12
2014-5-15,52,46,40,52,43,34,99,86,62,30.08,29.90,29.74,10,8,2,24,10,28,0.03,7,Rain,291
2014-5-16,48,42,36,40,38,34,97,82,62,30.06,30.01,29.98,10,8,2,21,2,24,0.14,6,Rain,113
2014-5-17,52,45,38,41,37,34,90,74,53,30.24,30.15,30.05,10,9,5,21,6,25,0.00,5,,300
2014-5-18,61,48,36,41,35,30,95,61,32,30.32,30.27,30.24,10,10,7,7,2,,0.00,0,,204
2014-5-19,67,55,43,44,39,34,85,56,35,30.31,30.22,30.08,10,9,7,16,4,21,0.00,0,,156
2014-5-20,81,68,56,62,54,43,71,60,48,30.12,30.00,29.93,10,9,5,16,10,23,0.00,7,,197
2014-5-21,84,74,63,64,61,57,85,69,46,29.94,29.91,29.86,10,8,5,17,10,23,0.00,3,,232
2014-5-22,73,65,57,62,52,43,93,63,36,30.11,30.02,29.89,10,10,7,15,7,21,0.00,1,,327
2014-5-23,71,60,50,47,44,41,82,55,33,30.19,30.15,30.10,10,10,7,12,5,18,0.00,0,,352
2014-5-24,75,61,47,51,46,42,90,58,31,30.24,30.18,30.14,10,10,5,10,2,,0.00,0,,83
2014-5-25,80,66,52,52,48,43,86,52,27,30.19,30.14,30.08,10,10,7,9,4,,0.00,0,,163
2014-5-26,86,70,55,60,55,49,86,57,37,30.13,30.07,29.98,10,9,5,18,6,23,0.00,2,,216
2014-5-27,87,76,64,62,58,50,86,56,28,30.03,29.98,29.91,10,9,5,21,9,31,0.00,1,,251
2014-5-28,83,73,63,67,62,58,96,75,43,30.04,29.98,29.94,10,7,1,20,5,,1.31,3,Rain,271
2014-5-29,79,70,60,65,62,56,97,77,54,30.12,30.07,30.03,10,6,1,12,7,,0.01,5,,79
2014-5-30,80,67,54,56,52,49,84,57,32,30.20,30.15,30.12,10,9,5,14,8,21,0.00,0,,84
2014-5-31,83,70,57,55,51,48,82,51,30,30.23,30.17,30.11,10,9,7,13,6,17,0.00,0,,117